Time,TemperatureF,DewpointF,PressureIn,WindDirection,WindDirectionDegrees,WindSpeedMPH,WindSpeedGustMPH,Humidity,HourlyPrecipIn,Conditions,Clouds,dailyrainin,SoftwareType,DateUTC
2013-07-15 00:11:00,78.0,74.0,-100.00,ESE,120,0.0,0.0,90,-99.99,,,-99.99,,2013-07-15 05:11:00,
2013-07-15 00:22:00,78.0,74.0,-100.00,ESE,120,0.0,0.0,90,-99.99,,,-99.99,,2013-07-15 05:22:00,
2013-07-15 00:43:00,77.0,75.0,-100.00,SE,145,0.0,0.0,93,-99.99,,,-99.99,,2013-07-15 05:43:00,
2013-07-15 00:53:00,77.0,75.0,-100.00,SE,145,0.0,0.0,93,-99.99,,,-99.99,,2013-07-15 05:53:00,
2013-07-15 01:22:00,76.0,75.0,-100.00,NE,50,0.0,0.0,96,-99.99,,,-99.99,,2013-07-15 06:22:00,
2013-07-15 01:42:00,76.0,76.0,-100.00,North,355,0.0,0.0,99,-99.99,,,-99.99,,2013-07-15 06:42:00,
2013-07-15 01:53:00,76.0,76.0,-100.00,North,355,0.0,0.0,99,-99.99,,,-99.99,,2013-07-15 06:53:00,
2013-07-15 02:11:00,75.0,75.0,-100.00,ESE,105,0.0,0.0,99,-99.99,,,-99.99,,2013-07-15 07:11:00,
2013-07-15 02:21:00,75.0,75.0,-100.00,ESE,105,0.0,0.0,99,-99.99,,,-99.99,,2013-07-15 07:21:00,
2013-07-15 02:44:00,75.0,75.0,-100.00,North,0,0.0,0.0,99,-99.99,,,-99.99,,2013-07-15 07:44:00,
2013-07-15 02:53:00,75.0,75.0,-100.00,North,0,0.0,0.0,99,-99.99,,,-99.99,,2013-07-15 07:53:00,
2013-07-15 03:22:00,75.0,75.0,-100.00,East,100,0.0,0.0,99,-99.99,,,-99.99,,2013-07-15 08:22:00,
2013-07-15 03:43:00,75.0,75.0,-100.00,East,95,0.0,0.0,99,-99.99,,,-99.99,,2013-07-15 08:43:00,
2013-07-15 03:53:00,75.0,75.0,-100.00,East,95,0.0,0.0,99,-99.99,,,-99.99,,2013-07-15 08:53:00,
2013-07-15 04:11:00,75.0,75.0,-100.00,East,90,0.0,0.0,99,-99.99,,,-99.99,,2013-07-15 09:11:00,
2013-07-15 04:22:00,75.0,75.0,-100.00,East,90,0.0,0.0,99,-99.99,,,-99.99,,2013-07-15 09:22:00,
2013-07-15 04:43:00,75.0,74.0,-100.00,East,100,0.0,0.0,99,-99.99,,,-99.99,,2013-07-15 09:43:00,
2013-07-15 04:52:00,75.0,74.0,-100.00,East,100,0.0,0.0,99,-99.99,,,-99.99,,2013-07-15 09:52:00,
2013-07-15 05:11:00,74.0,74.0,-100.00,East,80,0.0,0.0,99,-99.99,,,-99.99,,2013-07-15 10:11:00,
2013-07-15 05:22:00,74.0,74.0,-100.00,East,80,0.0,0.0,99,-99.99,,,-99.99,,2013-07-15 10:22:00,
2013-07-15 05:43:00,74.0,74.0,-100.00,East,100,0.0,0.0,99,-99.99,,,-99.99,,2013-07-15 10:43:00,
2013-07-15 05:53:00,74.0,74.0,-100.00,East,100,0.0,0.0,99,-99.99,,,-99.99,,2013-07-15 10:53:00,
2013-07-15 06:11:00,74.0,73.0,-100.00,East,85,0.0,0.0,99,-99.99,,,-99.99,,2013-07-15 11:11:00,
2013-07-15 06:22:00,74.0,73.0,-100.00,East,85,0.0,0.0,99,-99.99,,,-99.99,,2013-07-15 11:22:00,
2013-07-15 06:32:00,74.0,73.0,-100.00,East,100,0.0,0.0,99,-99.99,,,-99.99,,2013-07-15 11:32:00,
2013-07-15 06:42:00,74.0,73.0,-100.00,East,95,0.0,0.0,99,-99.99,,,-99.99,,2013-07-15 11:42:00,
2013-07-15 06:52:00,74.0,73.0,-100.00,East,95,0.0,0.0,99,-99.99,,,-99.99,,2013-07-15 11:52:00,
2013-07-15 07:01:00,74.0,73.0,-100.00,East,95,0.0,0.0,99,-99.99,,,-99.99,,2013-07-15 12:01:00,
2013-07-15 07:11:00,74.0,73.0,-100.00,East,95,0.0,0.0,99,-99.99,,,-99.99,,2013-07-15 12:11:00,
2013-07-15 07:53:00,76.0,76.0,-100.00,SE,145,0.0,0.0,99,-99.99,,,-99.99,,2013-07-15 12:53:00,
2013-07-15 08:22:00,79.0,78.0,-100.00,ESE,120,0.0,0.0,96,-99.99,,,-99.99,,2013-07-15 13:22:00,
2013-07-15 08:53:00,82.0,77.0,-100.00,SE,140,0.0,0.0,87,-99.99,,,-99.99,,2013-07-15 13:53:00,
2013-07-15 09:02:00,84.0,77.0,-100.00,SSE,150,0.0,0.0,81,-99.99,,,-99.99,,2013-07-15 14:02:00,
2013-07-15 09:22:00,85.0,77.0,-100.00,South,175,0.0,0.0,79,-99.99,,,-99.99,,2013-07-15 14:22:00,
2013-07-15 10:01:00,87.0,77.0,-100.00,South,185,0.0,0.0,72,-99.99,,,-99.99,,2013-07-15 15:01:00,
2013-07-15 10:27:00,90.0,77.0,-100.00,South,180,0.0,0.0,67,-99.99,,,-99.99,,2013-07-15 15:27:00,
2013-07-15 10:53:00,91.0,77.0,-100.00,WSW,245,0.0,0.0,64,-99.99,,,-99.99,,2013-07-15 15:53:00,
2013-07-15 11:24:00,94.0,77.0,-100.00,NW,305,0.0,0.0,59,-99.99,,,-99.99,,2013-07-15 16:24:00,
2013-07-15 11:45:00,92.0,77.0,-100.00,SW,220,0.0,0.0,62,-99.99,,,-99.99,,2013-07-15 16:45:00,
2013-07-15 11:53:00,92.0,77.0,-100.00,SW,220,0.0,0.0,62,-99.99,,,-99.99,,2013-07-15 16:53:00,
2013-07-15 12:13:00,90.0,77.0,-100.00,SSW,205,0.0,0.0,65,-99.99,,,-99.99,,2013-07-15 17:13:00,
2013-07-15 12:23:00,90.0,77.0,-100.00,SSW,205,0.0,0.0,65,-99.99,,,-99.99,,2013-07-15 17:23:00,
2013-07-15 12:48:00,88.0,76.0,-100.00,North,0,0.0,0.0,69,-99.99,,,-99.99,,2013-07-15 17:48:00,
2013-07-15 13:00:00,88.0,76.0,-100.00,North,0,0.0,0.0,69,-99.99,,,-99.99,,2013-07-15 18:00:00,
2013-07-15 13:45:00,90.0,77.0,-100.00,ESE,105,0.0,0.0,64,-99.99,,,-99.99,,2013-07-15 18:45:00,
2013-07-15 13:59:00,90.0,77.0,-100.00,ESE,105,0.0,0.0,64,-99.99,,,-99.99,,2013-07-15 18:59:00,
2013-07-15 14:11:00,93.0,78.0,-100.00,East,95,0.0,0.0,61,-99.99,,,-99.99,,2013-07-15 19:11:00,
2013-07-15 14:24:00,93.0,78.0,-100.00,East,95,0.0,0.0,61,-99.99,,,-99.99,,2013-07-15 19:24:00,
2013-07-15 14:36:00,93.0,79.0,-100.00,NE,45,0.0,0.0,63,-99.99,,,-99.99,,2013-07-15 19:36:00,
2013-07-15 14:47:00,90.0,77.0,-100.00,ESE,110,0.0,0.0,66,-99.99,,,-99.99,,2013-07-15 19:47:00,
2013-07-15 14:56:00,90.0,77.0,-100.00,ESE,110,0.0,0.0,66,-99.99,,,-99.99,,2013-07-15 19:56:00,
2013-07-15 15:28:00,89.0,79.0,-100.00,NE,55,0.0,0.0,72,-99.99,,,-99.99,,2013-07-15 20:28:00,
2013-07-15 15:43:00,89.0,77.0,-100.00,SE,130,0.0,0.0,68,-99.99,,,-99.99,,2013-07-15 20:43:00,
2013-07-15 16:23:00,90.0,78.0,-100.00,SE,130,0.0,0.0,67,-99.99,,,-99.99,,2013-07-15 21:23:00,
2013-07-15 17:01:00,90.0,78.0,-100.00,ESE,105,0.0,0.0,70,-99.99,,,-99.99,,2013-07-15 22:01:00,
2013-07-15 17:22:00,89.0,79.0,-100.00,SSE,150,0.0,0.0,71,-99.99,,,-99.99,,2013-07-15 22:22:00,
2013-07-15 17:43:00,89.0,77.0,-100.00,East,100,0.0,0.0,69,-99.99,,,-99.99,,2013-07-15 22:43:00,
2013-07-15 17:54:00,89.0,77.0,-100.00,East,100,0.0,0.0,69,-99.99,,,-99.99,,2013-07-15 22:54:00,
2013-07-15 18:54:00,88.0,78.0,-100.00,ESE,115,0.0,0.0,71,-99.99,,,-99.99,,2013-07-15 23:54:00,
2013-07-15 19:15:00,88.0,75.0,-100.00,ESE,115,0.0,0.0,67,-99.99,,,-99.99,,2013-07-16 00:15:00,
2013-07-15 19:26:00,88.0,75.0,-100.00,ESE,115,0.0,0.0,67,-99.99,,,-99.99,,2013-07-16 00:26:00,
2013-07-15 19:33:00,88.0,75.0,-100.00,ESE,115,0.0,0.0,67,-99.99,,,-99.99,,2013-07-16 00:33:00,
2013-07-15 19:53:00,87.0,75.0,-100.00,SE,145,0.0,0.0,68,-99.99,,,-99.99,,2013-07-16 00:53:00,
2013-07-15 21:02:00,85.0,78.0,-100.00,SE,145,0.0,0.0,79,-99.99,,,-99.99,,2013-07-16 02:02:00,
2013-07-15 21:11:00,84.0,79.0,-100.00,SE,145,0.0,0.0,85,-99.99,,,-99.99,,2013-07-16 02:11:00,
2013-07-15 21:48:00,83.0,80.0,-100.00,SSE,155,0.0,0.0,92,-99.99,,,-99.99,,2013-07-16 02:48:00,
2013-07-15 21:54:00,83.0,80.0,-100.00,SSE,155,0.0,0.0,92,-99.99,,,-99.99,,2013-07-16 02:54:00,
2013-07-15 22:28:00,82.0,80.0,-100.00,South,170,0.0,0.0,94,-99.99,,,-99.99,,2013-07-16 03:28:00,
2013-07-15 22:58:00,81.0,80.0,-100.00,SSE,150,0.0,0.0,96,-99.99,,,-99.99,,2013-07-16 03:58:00,
2013-07-15 23:01:00,81.0,80.0,-100.00,SSE,150,0.0,0.0,96,-99.99,,,-99.99,,2013-07-16 04:01:00,
2013-07-15 23:12:00,81.0,80.0,-100.00,SSE,150,0.0,0.0,96,-99.99,,,-99.99,,2013-07-16 04:12:00,